Satellite-Ground Cal/Val Region Overpasses Predictions

Prediction of Satellite NPP Overpassing Cal/Val Region: PacNW

Region Location: (Latitude: 10.00, Longitude: 139.50) to (Latitude: 22.70, Longitude: 165.60).

Table of predicted overpasses for the next 14.0 days since TLE Epoch: 9/27/2014
Interval Starting Time Starting Location Ending Time Ending Location
1 09/28/2014 02:18:49 ( 19.28, 165.59) 09/28/2014 02:19:47 ( 22.68, 164.75)
2 09/28/2014 03:57:41 ( 10.00, 142.40) 09/28/2014 04:01:08 ( 22.16, 139.51)
3 09/28/2014 14:48:05 ( 22.65, 165.01) 09/28/2014 14:51:40 ( 10.03, 162.00)
4 09/28/2014 16:29:35 ( 22.65, 139.64) 09/28/2014 16:29:44 ( 22.12, 139.50)
5 09/29/2014 03:38:40 ( 10.01, 147.16) 09/29/2014 03:42:16 ( 22.69, 144.13)
6 09/29/2014 16:10:33 ( 22.70, 144.41) 09/29/2014 16:14:09 ( 10.02, 141.38)
7 09/30/2014 03:19:38 ( 10.02, 151.91) 09/30/2014 03:23:13 ( 22.64, 148.91)
8 09/30/2014 15:51:31 ( 22.69, 149.16) 09/30/2014 15:55:07 ( 10.01, 146.14)
9 10/01/2014 03:00:37 ( 10.03, 156.67) 10/01/2014 03:04:12 ( 22.66, 153.66)
10 10/01/2014 15:32:30 ( 22.67, 153.92) 10/01/2014 15:36:05 ( 10.05, 150.91)
11 10/02/2014 02:41:35 ( 10.05, 161.42) 10/02/2014 02:45:10 ( 22.67, 158.42)
12 10/02/2014 15:13:28 ( 22.66, 158.67) 10/02/2014 15:17:03 ( 10.04, 155.67)
13 10/03/2014 02:23:17 ( 12.59, 165.60) 10/03/2014 02:26:09 ( 22.68, 163.17)
14 10/03/2014 04:04:03 ( 10.01, 140.82) 10/03/2014 04:05:39 ( 15.65, 139.51)
15 10/03/2014 14:54:27 ( 22.65, 163.43) 10/03/2014 14:58:02 ( 10.03, 160.42)
16 10/04/2014 03:45:01 ( 10.02, 145.57) 10/04/2014 03:48:36 ( 22.64, 142.57)
17 10/04/2014 14:38:29 ( 11.83, 165.60) 10/04/2014 14:39:00 ( 10.01, 165.18)
18 10/04/2014 16:16:54 ( 22.68, 142.82) 10/04/2014 16:20:30 ( 10.01, 139.80)
19 10/05/2014 03:26:00 ( 10.04, 150.33) 10/05/2014 03:29:35 ( 22.66, 147.32)
20 10/05/2014 15:57:53 ( 22.67, 147.58) 10/05/2014 16:01:28 ( 10.05, 144.57)
21 10/06/2014 03:06:59 ( 10.05, 155.09) 10/06/2014 03:10:34 ( 22.67, 152.08)
22 10/06/2014 15:38:51 ( 22.65, 152.33) 10/06/2014 15:42:26 ( 10.03, 149.33)
23
